Regional Weather Roundup
Issued by NWS Upton, NY

Current Version | Previous Version | Graphics & Text | Print | Product List | Glossary Off
Versions: 1 2 3 4 5 6 7 8 9 10 11 12 13 14 15 16 17 18 19 20 21 22 23 24 25 26 27 28
000 ASUS41 KOKX 132108 RWROKX REGIONAL WEATHER ROUNDUP NATIONAL WEATHER SERVICE NEW YORK NY 400 PM EST WED DEC 13 2017 NOTE: "FAIR" INDICATES FEW OR NO CLOUDS BELOW 12,000 FEET WITH NO SIGNIFICANT WEATHER AND/OR OBSTRUCTIONS TO VISIBILITY. NYZ071-072-176-178-NJZ106-104-132200- NEW YORK CITY METRO AREA CITY SKY/WX TMP DP RH WIND PRES REMARKS Central Park CLEAR 30 4 33 W12G26 29.62R WCI 20 Bronx Bot Gard N/A 32 3 29 NW7 29.61R WCI 26 Bronx Lehman C NOT AVBL LaGuardia APRT PTCLDY 32 6 33 NW28G39 29.59R WCI 18 Queens College NOT AVBL Kennedy INTL PTCLDY 31 6 35 W26G32 29.61R WCI 17 Breezy Point N/A N/A N/A N/A W22G33 N/A Brooklyn Coll NOT AVBL Staten Island NOT AVBL Newark/Liberty PTCLDY 31 6 35 W25 29.61R WCI 17 Teterboro CLEAR 31 3 30 W17G31 29.59R WCI 19 $$ NYZ177-179-078>081-132200- LONG ISLAND NEW YORK CITY SKY/WX TMP DP RH WIND PRES REMARKS Jones Beach N/A N/A N/A N/A W21G29 N/A Wantagh NOT AVBL Matinecock PT N/A 32 N/A N/A W30G38 N/A WCI 18 Farmingdale CLEAR 30 2 30 NW18G24 29.59R WCI 18 MacArthur/ISP PTCLDY 30 3 31 W18G33 29.57R WCI 18 Shirley CLEAR 30 7 37 W14G24 29.58R WCI 19 Mt Sinai Harb N/A N/A N/A N/A W16G25 N/A Westhampton CLEAR 28 6 39 W25G35 29.56R WCI 13 East Hampton FAIR 28 10 48 W13G33 29.53R WCI 17 Southold NOT AVBL Montauk N/A 30 14 51 W20G31 29.52R WCI 17 $$ NYZ052-065-067-132200- HUDSON VALLEY CITY SKY/WX TMP DP RH WIND PRES REMARKS White Plains PTCLDY 27 1 32 W21G31 29.55R WCI 13 Larchmont Harb N/A N/A N/A N/A W24G32 N/A Croton On Huds N/A N/A N/A N/A W21G28 N/A Somers NOT AVBL Brewster NOT AVBL Newburgh NOT AVBL Montgomery PTCLDY 26 3 37 W18G26 29.56R WCI 13 Otisville NOT AVBL Warwick NOT AVBL Suffern NOT AVBL Poughkeepsie CLEAR 25 5 42 W8 29.58R WCI 16 Albany FLURRIES 21 10 62 NW8G25 29.52R WCI 11 $$ NJZ001-105-106-008-010-013-015-019>022-104-132200- NEW JERSEY CITY SKY/WX TMP DP RH WIND PRES REMARKS Newark/Liberty PTCLDY 31 6 35 W25 29.61R WCI 17 Teterboro CLEAR 31 3 30 W17G31 29.59R WCI 19 Caldwell CLEAR 29 3 33 NW13G26 29.61R WCI 19 Somerville CLEAR 28 7 41 MISG 29.63R Linden FAIR 30 6 36 NW15G29 29.63S WCI 19 Perth Amboy N/A N/A N/A N/A W24G31 N/A Sussex CLEAR 27 3 35 W10G18 29.59R WCI 17 Andover NOT AVBL Trenton CLEAR 30 6 36 W8G22 29.66S WCI 22 Millville CLEAR 30 7 37 W14 29.73S WCI 19 Atlantic City CLEAR 31 6 35 W16G28 29.71S WCI 20 Wrightstown CLEAR 29 6 36 W18G24 29.65R WCI 17 Toms River CLEAR 30 8 39 W17G24 29.68R WCI 18 Belmar CLEAR 28 8 43 W18G30 29.65R WCI 15 $$ PAZ047>061-062-071-132200- EASTERN PENNSYLVANIA CITY SKY/WX TMP DP RH WIND PRES REMARKS Philadelphia PTCLDY 30 3 31 W18G31 29.72S WCI 18 Allentown CLEAR 28 5 37 W16G23 29.66R WCI 16 Scranton MOCLDY 25 4 40 NW10 29.59R WCI 15 $$ CTZ002-004>006-009-010-012-RIZ004-006-007-MAZ004-011-015-132200- SOUTHERN NEW ENGLAND IN CT CITY SKY/WX TMP DP RH WIND PRES REMARKS Bradley INTL PTCLDY 24 9 52 W23G38 29.48R WCI 9 Hartford MOCLDY 27 8 44 W13G21 29.51R WCI 16 Danbury CLEAR 26 4 38 W18G29 29.55R WCI 13 Wtrbury/Oxford PTCLDY 23 8 52 W16G29 29.50R WCI 10 Norwalk Harbor N/A N/A N/A N/A W22G29 N/A Bridgeport CLEAR 29 4 34 W20G31 29.56R WCI 16 Meriden CLEAR 25 8 48 W14G24 29.53R WCI 13 New Haven CLEAR 28 7 41 NW14G26 29.55R WCI 17 Chester FAIR 25 7 46 W13G25 29.48R WCI 13 Groton CLEAR 27 8 44 W18G29 29.49R WCI 14 Wilimantic PTCLDY 26 9 48 W16G25 29.47R WCI 14 IN RI CITY SKY/WX TMP DP RH WIND PRES REMARKS Providence PTCLDY 25 9 50 W22G30 29.43R WCI 10 Block Island MOCLDY 27 14 58 W21G36 29.48R WCI 13 Westerly CLEAR 26 10 50 W10G23 29.49R WCI 16 IN MA CITY SKY/WX TMP DP RH WIND PRES REMARKS Boston PTCLDY 24 8 50 W23G41 29.35R WCI 9 Worcester PTCLDY 18 5 57 W28G41 29.31R WCI -1 Westfield MOCLDY 22 12 65 W13 29.47R WCI 10 Provincetown PTCLDY 25 13 60 W26G36 29.35R WCI 9 Nantucket PTCLDY 26 15 63 W28G40 29.40R WCI 10 $$ ANZ330-335-338-340-345-350-353-355-132200- COASTAL MARINE OBSERVATIONS STATION/POSITION TIME SKY/WX TEMP WIND PRES VSBY WAVE AIR SEA DIR/SP/G HT/PER (UTC) (F) (DEG/KT/KT) (MB) (MI) (FT/S) NY HARB ENTRANCE 1950 33 52 280/ 31/ 39 1000.7 6/ 6 20 S FIRE ISLAND 1950 33 52 280/ 29/ 37 1001.2 11/ 7 GREAT SOUTH BAY 2030 31 45 290/ 21/ 29 N/A HUDSON CANYON 1950 35 55 280/ 31/ 39 1001.6 14/ 8 KINGS POINT 2030 31 43 340/ 23/ 32 1002.9 EXECUTION ROCKS 2030 36 270/ 21/ 29 N/A WESTERN LI SOUND NOT AVBL CENTRAL LI SOUND 1930 30 280/ 27/ 37 N/A 6 ROBBINS REEF 2030 31 270/ 21/ 31 1002.9 $$ >>>>>>>>>>>>>>>>>>>>>>>>>>>> KEY <<<<<<<<<<<<<<<<<<<<<<<<<<< > < > SKY/WX - Sky Condition/Present Weather < > TMP - Temperature in Fahrenheit < > DP - Dew Point in Fahrenheit < > RH - Relative Humidity in Percent < > WIND - Direction (from) and Speed in MPH < > PRES - Mean Sea Level Pressure (inches of Hg) < > WCI - Wind Chill Index < > VSB - VISIBILITY IN MILES < > HX - HEAT INDEX < > TC - TEMPERATURE IN CELSIUS < > VRB - VARIABLE WIND DIRECTION < > < >>>>>>>>>>>>>>>>>>>>>>>>>>>> KEY <<<<<<<<<<<<<<<<<<<<<<<<<<<

USA.gov is the U.S. government's official web portal to all federal, state and local government web resources and services.